Location: �terpigny
(49.8910°N, 2.9249°E)
Time: 10:56:38
(UTC+00:00)

Cosmos 1943 Rocket - Pass Details

Date: 24 October 2021
Orbit: 811 x 845 km, 71.0° (Epoch: 30 November)

Event Time Altitude Azimuth Distance (km) Brightness Sun altitude
Rises 20:24:57 0° 333° (NNW) 3,416 6.0 -36.2°
Reaches altitude 10° 20:27:36 10° 341° (NNW) 2,477 5.1 -36.6°
Enters shadow 20:29:29 20° 353° (N) 1,870 4.2 -36.8°
